Weather History for PHJR - May, 2014

Change the Weather History Date:

Wednesday, May 7, 2014

  Actual Average (PHNL) Record (PHNL)
Temperature  
Mean Temperature 75 °F 77 °F  
Max Temperature 82 °F 84 °F 88 °F (1970)
Min Temperature 68 °F 70 °F 64 °F (1954)
Degree Days  
Heating Degree Days 0 0  
Month to date heating degree days 0  
Since 1 July heating degree days 0  
Cooling Degree Days 10 12  
Month to date cooling degree days 84  
Year to date cooling degree days 1191  
Growing Degree Days 25 (Base 50)    
Moisture  
Dew Point 67 °F    
Average Humidity 77    
Maximum Humidity 88    
Minimum Humidity 60    
Precipitation  
Precipitation 0.00 in 0.02 in 0.58 in (1981)
Month to date precipitation 0.16  
Year to date precipitation 7.11  
Snow  
Snow 0.00 in - - ()
Month to date snowfall  
Since 1 July snowfall  
Snow Depth -    
Sea Level Pressure  
Sea Level Pressure 30.11 in    
Wind  
Wind Speed 2 mph (SE)    
Max Wind Speed 9 mph    
Max Gust Speed -    
Visibility 10 miles    
Events      
T = Trace of Precipitation, MM = Missing Value Source: NWS Daily Summary

Daily Weather History Graph

Daily Weather History Graph

Search for Another Location

Airport or City:

Trip Planner

Search our weather history database for the weather conditions in past years. The results will help you decide how hot, cold, wet, or windy it might be!

Date:

Astronomy

May. 07, 2014 Rise Set
Actual Time 5:57 AM HST 7:00 PM HST
Civil Twilight 5:34 AM HST 7:23 PM HST
Nautical Twilight 5:06 AM HST 7:51 PM HST
Astronomical Twilight 4:37 AM HST 8:20 PM HST
Moon 1:04 PM HST (5/7) 1:11 AM HST (5/7)
Length of Visible Light 13h 49m
Length of Day
13h 02m
First Quarter, 57% of the Moon is Illuminated
May 7
First Quarter
May 14
Full
May 21
Last Quarter
May 28
New
Jun 5
First Quarter

Hourly Weather History & Observations

Time (HST) Temp. Heat Index Dew Point Humidity Pressure Visibility Wind Dir Wind Speed Gust Speed Precip Events Conditions
12:53 AM 69.1 °F - 64.9 °F 87% 30.12 in 10.0 mi Calm Calm - N/A   Clear
1:53 AM 68.0 °F - 64.0 °F 87% 30.11 in 10.0 mi Calm Calm - N/A   Clear
2:53 AM 70.0 °F - 66.0 °F 87% 30.10 in 10.0 mi Calm Calm - N/A   Mostly Cloudy
3:53 AM 71.1 °F - 66.0 °F 84% 30.10 in 10.0 mi Calm Calm - N/A   Overcast
4:53 AM 71.1 °F - 66.9 °F 87% 30.11 in 10.0 mi Calm Calm - N/A   Overcast
5:53 AM 72.0 °F - 66.9 °F 84% 30.12 in 10.0 mi Calm Calm - N/A   Mostly Cloudy
6:53 AM 72.0 °F - 68.0 °F 87% 30.12 in 10.0 mi Calm Calm - N/A   Clear
7:53 AM 75.0 °F - 68.0 °F 79% 30.14 in 10.0 mi SE 9.2 mph - N/A   Overcast
8:03 AM 73.4 °F - 69.8 °F 88% 30.13 in 10.0 mi SE 5.8 mph - N/A   Overcast
8:10 AM 73.4 °F - 69.8 °F 88% 30.13 in 10.0 mi ESE 8.1 mph - N/A   Overcast
8:32 AM 73.4 °F - 69.8 °F 88% 30.13 in 10.0 mi SE 6.9 mph - 0.00 in   Overcast
8:53 AM 75.0 °F - 68.0 °F 79% 30.15 in 10.0 mi ESE 6.9 mph - 0.00 in   Overcast
9:53 AM 73.9 °F - 69.1 °F 85% 30.15 in 10.0 mi NNE 3.5 mph - 0.00 in   Overcast
10:53 AM 80.1 °F 82.3 °F 66.9 °F 64% 30.14 in 10.0 mi Variable 4.6 mph - N/A   Unknown
11:53 AM 81.0 °F 83.3 °F 66.9 °F 62% 30.13 in 10.0 mi SSE 5.8 mph - N/A   Mostly Cloudy
12:53 PM 82.9 °F 85.8 °F 68.0 °F 60% 30.11 in 10.0 mi SSE 6.9 mph - N/A   Partly Cloudy
1:53 PM 82.9 °F 85.8 °F 68.0 °F 60% 30.10 in 10.0 mi SSE 9.2 mph - N/A   Partly Cloudy
2:10 PM 82.4 °F 85.4 °F 68.0 °F 62% 30.08 in 10.0 mi SSE 8.1 mph - N/A   Mostly Cloudy
2:53 PM 81.0 °F 83.3 °F 66.9 °F 62% 30.08 in 10.0 mi SSE 6.9 mph - N/A   Scattered Clouds
3:53 PM 80.1 °F 82.3 °F 66.9 °F 64% 30.07 in 10.0 mi South 3.5 mph - N/A   Mostly Cloudy
4:53 PM 79.0 °F - 68.0 °F 69% 30.06 in 10.0 mi SW 4.6 mph - N/A   Mostly Cloudy
5:53 PM 78.1 °F - 68.0 °F 71% 30.08 in 10.0 mi Calm Calm - N/A   Overcast
6:53 PM 78.1 °F - 68.0 °F 71% 30.09 in 10.0 mi Calm Calm - N/A   Overcast
7:39 PM 77.0 °F - 68.0 °F 74% 30.09 in 10.0 mi NNE 3.5 mph - N/A   Overcast
7:53 PM 77.0 °F - 68.0 °F 74% 30.11 in 10.0 mi NNE 3.5 mph - N/A   Overcast
8:53 PM 75.0 °F - 66.9 °F 76% 30.13 in 10.0 mi Calm Calm - N/A   Scattered Clouds
9:53 PM 73.0 °F - 66.9 °F 81% 30.14 in 10.0 mi Calm Calm - N/A   Partly Cloudy
10:05 PM 73.4 °F - 68.0 °F 83% 30.13 in 10.0 mi Calm Calm - N/A   Mostly Cloudy
10:13 PM 73.4 °F - 68.0 °F 83% 30.13 in 10.0 mi Calm Calm - N/A   Scattered Clouds
10:53 PM 72.0 °F - 66.9 °F 84% 30.14 in 10.0 mi Calm Calm - N/A   Mostly Cloudy
11:53 PM 73.0 °F - 66.9 °F 81% 30.13 in 10.0 mi Calm Calm - N/A   Overcast